User: anonymous   Login
Location: Lombard
(41.8800°N, 88.0080°W)
Time: 13:15:34
(UTC-05:00)
Language:

Tiros 1 - Orbit

View from above orbital plane
View from above orbital plane
View from above satellite
View from above satellite

Ground track
Ground track

The orbit data is extracted from the following two-line orbital elements,

1    29U 60002B   24115.12506218  .00002122  00000-0  33213-3 0  9999
2    29  48.3759 144.7974 0022718 136.8536 223.4162 14.76219124426286
Epoch (UTC): 24 April 2024 03:00:05
Eccentricity: 0.0022718
inclination: 48.3759°
perigee height: 625 km
apogee height: 657 km
right ascension of ascending node: 144.7974°
argument of perigee: 136.8536°
revolutions per day: 14.76219124
mean anomaly at epoch: 223.4162°
orbit number at epoch: 42628

The dashed part of the orbit path shows where the satellite is in the earth's shadow,  

DLR